Location: Novokuznetsk
(53.7500°N, 87.1000°E)
Time: 21:06:45
(UTC+06:00)

ISS - Pass Details

Date: 05 March 2021
Orbit: 418 x 422 km, 51.6° (Epoch: 16 April)

Event Time Altitude Azimuth Distance (km) Brightness Sun altitude
Exits shadow 05:14:13 34° 250° (WSW) 717 -3.1 -15.0°
Maximum altitude 05:15:24 56° 189° (S) 506 -3.5 -14.9°
Drops below altitude 10° 05:18:42 10° 110° (ESE) 1,499 0.0 -14.4°
Sets 05:20:49 0° 106° (ESE) 2,362 1.3 -14.1°
